sat.trackr.live / text

‹ back to catalog

TIGER-8

NORAD 59120 · 2024-043Y

PAYLOAD ACTIVE UNKNOWN

§ Identity

Operator
Country
RWA
Launch date
2024-03-04
Launch site
AFWTR
Launch vehicle
Mass (kg)
RCS (m²)

External: N2YO · Heavens-Above · Gunter

§ Orbital elements

Epoch: 2026-09-22T03:28:54.308928Z

Period
93.13 min
Inclination
97.5656°
Eccentricity
0.0006592
Mean motion
15.46233890 rev/d
Perigee alt
423.3 km
Apogee alt
432.2 km
Semi-major
6,805.9 km
B*
1.4418e-4
RAAN
57.7831°
Arg perigee
202.0485°
Mean anomaly
158.0481°
Rev number
14,276

§ Raw data

TIGER-81 59120U 24043Y   26265.14507302  .00006998  00000+0  14418-3 0  99952 59120  97.5656  57.7831 0006592 202.0485 158.0481 15.46233890142769

JSON: /api/v1/satellites/59120 · /tle

For live sub-satellite position, see the globe view (requires WebGL).

§ Visibility from observer

Set your observer location to see the next 7 days of passes ≥ 10°. The values pass through the URL so the page stays shareable.

No JS? Fill the form by hand. The geolocation button needs JavaScript.

§ Radio — SatNOGS DB

ModeDescriptionDownlinkUplink
FM S-band telemetry 2.241 GHz

1 transmitter · refreshed weekly from db.satnogs.org